[[{"header":{"parameterUnit":"m.s-1","parameterCategory":1,"la1":30.2991,"la2":30.254,"lo1":-89.0895,"lo2":-89.0444,"dy":0.0017,"dx":0.0017,"nx":28,"ny":28,"refTime":"2025-08-09T03:00:00:Z","depth":0,"parameterNumber":2,"parameterNumberName":"U-component_of_WINDS"},"data":[0,0,0,0,0,0,0,0,0,0,0,0,0,0,0,0,0,0,0,0,0,0,0,0,0,0,0,0,0,0,0,0,0,0,0,0,0,0,0,0,0,0,0,0,0,0,0,0,0,0,0,0,0,0,0,0,0,0,-4.6746,-4.6748,0,-4.6853,-4.6855,-4.6856,-4.6764,-4.676,-4.6757,-4.6753,-4.6868,-4.6875,-4.6881,0,0,0,0,0,0,0,0,0,0,0,0,0,-4.647,-4.6475,-4.6746,-4.6748,-4.6749,-4.6853,-4.6855,-4.6856,-4.6765,-4.676,-4.6756,-4.6751,-4.6866,-4.6874,-4.6882,0,0,0,0,0,0,0,0,0,0,0,0,0,-4.6585,-4.6477,-4.6746,-4.6716,-4.6714,-4.6853,-4.6855,-4.6857,-4.6766,-4.676,-4.6754,-4.6749,-4.6864,-4.6873,-4.6883,-4.7059,0,0,-4.6914,-4.6918,0,0,0,0,0,0,0,0,-4.6578,-4.6595,-4.6719,-4.6718,-4.6717,-4.6789,-4.6799,-4.6925,-4.6767,-4.6746,-4.6753,-4.6746,-4.6847,-4.6858,-4.6891,-4.7064,-4.7069,-4.6914,-4.692,-4.6925,-4.6928,0,0,0,0,0,0,0,-4.6571,-4.659,-4.6789,-4.6721,-4.672,-4.6699,-4.6709,-4.6823,-4.6828,-4.6748,-4.6741,-4.6755,-4.6845,-4.6882,-4.6893,-4.7071,-4.6914,-4.6923,-4.6929,-4.6933,-4.7398,-4.7404,0,0,0,0,0,0,-4.6565,-4.6584,-4.6785,-4.6792,-4.6632,-4.6709,-4.672,-4.6772,-4.6826,-4.6829,-4.676,-4.675,-4.6867,-4.6881,-4.6897,-4.7108,-4.6925,-4.6934,-4.694,-4.7391,-4.7399,-4.7406,0,0,0,0,0,0,-4.6559,-4.6584,-4.6781,-4.6686,-4.671,-4.672,-4.6779,-4.6777,-4.6813,-4.6835,-4.6836,-4.6795,-4.6863,-4.6883,-4.702,-4.7111,-4.6938,-4.6947,-4.7384,-4.7394,-4.7403,-4.7532,0,0,0,0,0,0,-4.6552,-4.6582,-4.6647,-4.6688,-4.6715,-4.6901,-4.6784,-4.6783,-4.683,-4.6818,-4.6869,-4.6872,-4.686,-4.7005,-4.703,-4.7122,-4.6955,-4.7376,-4.7388,-4.74,-4.7519,-4.7545,-4.7566,0,0,0,0,0,-4.6542,-4.668,-4.6651,-4.6676,-4.6797,-4.6906,-4.6921,-4.6904,-4.6837,-4.6904,-4.6919,-4.687,-4.7097,-4.702,-4.7047,-4.7143,-4.737,-4.7385,-4.7399,-4.7509,-4.754,-4.7566,0,0,0,0,0,0,-4.6651,-4.6685,-4.6653,-4.6808,-4.6855,-4.689,-4.6974,-4.6936,-4.7004,-4.6991,-4.6968,-4.6981,-4.7126,-4.7148,-4.7062,-4.7318,-4.7223,-4.7243,-4.7298,-4.7327,-4.735,-4.7343,-4.6964,0,0,0,0,0,-4.6693,-4.6776,-4.6802,-4.6937,-4.6961,-4.6964,-4.7011,-4.6993,-4.7042,-4.7061,-4.7086,-4.7136,-4.7219,-4.7274,-4.7351,-4.7522,-4.7533,-4.7602,-4.7625,-4.7644,-4.7663,-4.7758,-4.7789,-4.7453,-4.7453,-4.7453,0,0,-4.678,-4.6809,-4.6864,-4.6959,-4.6993,-4.7083,-4.6981,-4.708,-4.7147,-4.7077,-4.7208,-4.7228,-4.7283,-4.7438,-4.7508,-4.7461,-4.7758,-4.7662,-4.7677,-4.7686,-4.7776,-4.7807,-4.7836,-4.7463,-4.7461,-4.746,0,0,-4.6986,-4.7015,-4.7131,-4.7168,-4.722,-4.7221,-4.7249,-4.7291,-4.7302,-4.7432,-4.7382,-4.7463,-4.7605,-4.7647,-4.7687,-4.7912,-4.7871,-4.7938,-4.806,-4.8153,-4.818,-4.8203,-4.8286,-4.8315,-4.7955,-4.7956,-4.7956,0,-4.7089,-4.722,-4.7196,-4.73,-4.7344,-4.7283,-4.7403,-4.744,-4.7516,-4.755,-4.7495,-4.7674,-4.7707,-4.7873,-4.7928,-4.7961,-4.7995,-4.7932,-4.8177,-4.82,-4.8222,-4.8301,-4.8332,-4.7964,-4.7963,-4.7962,-4.7961,0,-4.7345,-4.7438,-4.7526,-4.7599,-4.7654,-4.7765,-4.776,-4.7819,-4.7797,-4.7805,-4.7941,-4.7978,-4.8063,-4.8101,-4.8081,-4.8265,-4.8235,-4.818,-4.8084,-4.8262,-4.8336,-4.8366,-4.7975,-4.7972,-4.797,-4.7968,0,0,-4.7623,-4.7682,-4.7715,-4.7749,-4.7804,-4.7876,-4.7985,-4.8066,-4.8119,-4.8174,-4.8267,-4.839,-4.8339,-4.8385,-4.837,-4.8451,-4.863,-4.8386,-4.8387,-4.8433,-4.8839,-4.8882,-4.8917,-4.8603,-4.8608,-4.8613,-4.8835,0,-4.7832,-4.802,-4.8003,-4.8183,-4.8269,-4.8214,-4.8309,-4.8355,-4.8366,-4.8442,-4.8455,-4.8543,-4.8469,-4.8497,-4.8574,-4.8592,-4.8712,-4.8575,-4.8692,-4.8697,-4.8682,-4.8955,-4.8999,-4.9207,-4.8864,-4.8868,-4.8872,0,-4.8102,-4.8165,-4.8353,-4.8396,-4.8432,-4.8518,-4.8593,-4.8666,-4.8718,-4.872,-4.8772,-4.8744,-4.8857,-4.8759,-4.8916,-4.8824,-4.8871,-4.8887,-4.8895,-4.8907,-4.8796,-4.8976,-4.9273,-4.9305,-4.8917,-4.8913,-4.891,0,-4.8288,-4.8421,-4.8551,-4.8581,-4.8634,-4.8697,-4.8722,-4.8768,-4.8819,-4.8885,-4.8918,-4.8998,-4.9042,-4.9105,-4.91,-4.9028,-4.9262,-4.9162,-4.927,-4.927,-4.9322,-4.932,-4.9633,-4.935,-4.9349,-4.9349,-4.9348,0,-4.8525,-4.8643,-4.8635,-4.8716,-4.8847,-4.8828,-4.8959,-4.8978,-4.9019,-4.9104,-4.9061,-4.9143,-4.913,-4.9213,-4.921,-4.9343,-4.9363,-4.937,-4.9368,-4.9375,-4.9374,-4.9407,-4.9393,-4.9357,-4.9355,-4.9354,-4.9352,0,-4.8756,-4.8755,-4.8894,-4.8933,-4.8945,-4.9041,-4.9075,-4.9153,-4.916,-4.9269,-4.9293,-4.9306,-4.9401,-4.9402,-4.9511,-4.9509,-4.9673,-4.9654,-4.9655,-4.9652,-4.9761,-4.9751,-5.0108,-5.0155,-4.9839,-4.9842,-4.9844,0,-4.8908,-4.8997,-4.9046,-4.9099,-4.9128,-4.9214,-4.9265,-4.9251,-4.9307,-4.9374,-4.9444,-4.9535,-4.9607,-4.9762,-4.9783,-4.9867,-4.9851,-4.997,-4.9864,-4.9869,-4.9856,-4.9852,-4.9862,-4.9992,-4.9995,-4.9998,-5.0,0,-4.9179,-4.9174,-4.9249,-4.9325,-4.9388,-4.9448,-4.9503,-4.9549,-4.9541,-4.9607,-4.9703,-4.9759,-4.987,-4.9962,-5.0044,-5.0073,-5.0038,-5.0034,-5.0064,-5.0072,-5.007,-5.0076,-4.9714,-5.0026,-5.0023,-5.0021,-5.002,-5.0019,-4.9376,-4.9454,-4.9501,-4.9586,-4.9626,-4.9679,-4.9754,-4.9771,-4.985,-4.9938,-4.9925,-5.0034,-5.0086,-5.0192,-5.0228,-5.0315,-5.0273,-5.0316,-5.0327,-5.0339,-5.0352,-5.0055,-5.0329,-5.0329,-5.0328,-5.0327,-5.0327,0,-4.9647,-4.9674,-4.9753,-4.9831,-4.99,-4.9857,-4.9917,-4.9978,-5.0073,-5.0123,-5.0195,-5.0307,-5.0397,-5.0425,-5.0513,-5.0577,-5.0563,-5.0601,-5.0597,-5.0605,-5.0382,-5.0349,-5.0611,-5.0611,-5.0611,-5.061,-5.061,-5.061,-4.9796,-4.9925,-4.9927,-5.0078,-5.0105,-5.0209,-5.0247,-5.0297,-5.0337,-5.0464,-5.0537,-5.0554,-5.0597,-5.0688,-5.077,-5.0776,-5.0811,-5.0857,-5.0857,-5.0649,-5.062,-5.0593,-5.0561,-5.0864,-5.0864,-5.1072,-5.1074,-5.1076]},{"header":{"parameterUnit":"m.s-1","parameterCategory":1,"la1":30.2991,"la2":30.254,"lo1":-89.0895,"lo2":-89.0444,"dy":0.0017,"dx":0.0017,"nx":28,"ny":28,"refTime":"2025-08-09T03:00:00:Z","depth":0,"parameterNumber":3,"parameterNumberName":"V-component_of_WINDS"},"data":[0,0,0,0,0,0,0,0,0,0,0,0,0,0,0,0,0,0,0,0,0,0,0,0,0,0,0,0,0,0,0,0,0,0,0,0,0,0,0,0,0,0,0,0,0,0,0,0,0,0,0,0,0,0,0,0,0,0,-0.5053,-0.5053,0,-0.5107,-0.5108,-0.5109,-0.5137,-0.5137,-0.5137,-0.5137,-0.5194,-0.5195,-0.5197,0,0,0,0,0,0,0,0,0,0,0,0,0,-0.4972,-0.4974,-0.5053,-0.5053,-0.5054,-0.5107,-0.5108,-0.5109,-0.5137,-0.5137,-0.5137,-0.5137,-0.5193,-0.5195,-0.5197,0,0,0,0,0,0,0,0,0,0,0,0,0,-0.5015,-0.4974,-0.5052,-0.5075,-0.5077,-0.5107,-0.5108,-0.5109,-0.5137,-0.5137,-0.5137,-0.5138,-0.5193,-0.5195,-0.5197,-0.5209,0,0,-0.5204,-0.5205,0,0,0,0,0,0,0,0,-0.5013,-0.5018,-0.5071,-0.5073,-0.5076,-0.5116,-0.51,-0.5142,-0.5137,-0.5114,-0.5137,-0.5138,-0.5168,-0.5172,-0.5182,-0.5212,-0.5214,-0.5204,-0.5205,-0.5206,-0.5207,0,0,0,0,0,0,0,-0.501,-0.5016,-0.5074,-0.5071,-0.5075,-0.5082,-0.5088,-0.5108,-0.514,-0.5116,-0.5119,-0.5125,-0.5169,-0.518,-0.5184,-0.5215,-0.5204,-0.5206,-0.5207,-0.5208,-0.5257,-0.5257,0,0,0,0,0,0,-0.5003,-0.5013,-0.5073,-0.5076,-0.5044,-0.5083,-0.509,-0.5103,-0.514,-0.5146,-0.5125,-0.5126,-0.5176,-0.5181,-0.5186,-0.5202,-0.5206,-0.5208,-0.5209,-0.5257,-0.5257,-0.5257,0,0,0,0,0,0,-0.5001,-0.5008,-0.507,-0.5045,-0.5054,-0.5084,-0.5099,-0.5104,-0.5115,-0.5146,-0.5152,-0.513,-0.5176,-0.5183,-0.5203,-0.5205,-0.5209,-0.5211,-0.5257,-0.5257,-0.5257,-0.5236,0,0,0,0,0,0,-0.4999,-0.5007,-0.5012,-0.5045,-0.5055,-0.5087,-0.5099,-0.5105,-0.5118,-0.512,-0.5152,-0.5158,-0.5177,-0.52,-0.5205,-0.5208,-0.5213,-0.5257,-0.5257,-0.5257,-0.5236,-0.5235,-0.5234,0,0,0,0,0,-0.4996,-0.5004,-0.5012,-0.5019,-0.5062,-0.5087,-0.5092,-0.5114,-0.5118,-0.5124,-0.5144,-0.5157,-0.5203,-0.5201,-0.5208,-0.5211,-0.5257,-0.5257,-0.5257,-0.5237,-0.5235,-0.5234,0,0,0,0,0,0,-0.4971,-0.5009,-0.5019,-0.5038,-0.5059,-0.5092,-0.5099,-0.5112,-0.5132,-0.5133,-0.5159,-0.5166,-0.5184,-0.52,-0.5197,-0.5225,-0.5232,-0.5233,-0.5214,-0.5213,-0.5211,-0.5207,-0.5215,0,0,0,0,0,-0.4968,-0.4985,-0.5017,-0.5031,-0.5041,-0.5068,-0.508,-0.5095,-0.5117,-0.5127,-0.5148,-0.517,-0.5189,-0.5202,-0.5222,-0.5238,-0.5246,-0.5244,-0.5243,-0.5241,-0.5242,-0.5253,-0.5252,-0.5257,-0.5257,-0.5257,0,0,-0.4962,-0.4984,-0.4994,-0.5027,-0.5045,-0.5062,-0.5075,-0.5093,-0.5106,-0.5129,-0.515,-0.5166,-0.5192,-0.5211,-0.522,-0.5225,-0.5243,-0.5241,-0.524,-0.5242,-0.5252,-0.5252,-0.5252,-0.5257,-0.5257,-0.5257,0,0,-0.4959,-0.4978,-0.4991,-0.5009,-0.5036,-0.5054,-0.5057,-0.5088,-0.5099,-0.512,-0.5138,-0.5154,-0.5187,-0.5205,-0.5218,-0.5221,-0.5234,-0.5227,-0.522,-0.5229,-0.5229,-0.5229,-0.523,-0.523,-0.5227,-0.5227,-0.5227,0,-0.4947,-0.4974,-0.4997,-0.5013,-0.5027,-0.5048,-0.5062,-0.5078,-0.511,-0.5119,-0.5124,-0.5165,-0.5184,-0.5208,-0.5208,-0.5218,-0.5223,-0.5223,-0.5227,-0.5227,-0.5227,-0.5229,-0.5229,-0.5226,-0.5226,-0.5226,-0.5227,0,-0.4959,-0.4977,-0.4985,-0.5015,-0.503,-0.5045,-0.5069,-0.5081,-0.5094,-0.5112,-0.5133,-0.5156,-0.5181,-0.5187,-0.52,-0.5212,-0.5214,-0.5222,-0.523,-0.5226,-0.5227,-0.5228,-0.5225,-0.5225,-0.5225,-0.5226,0,0,-0.4943,-0.4985,-0.4987,-0.5001,-0.5032,-0.5047,-0.5062,-0.5086,-0.5096,-0.5117,-0.5131,-0.5159,-0.5166,-0.5181,-0.5197,-0.5205,-0.5206,-0.5212,-0.5213,-0.5211,-0.5221,-0.5214,-0.5215,-0.5214,-0.5215,-0.5215,-0.5219,0,-0.4945,-0.4974,-0.4995,-0.5016,-0.5033,-0.5053,-0.5067,-0.5087,-0.5104,-0.512,-0.5138,-0.5157,-0.5166,-0.5175,-0.5184,-0.5204,-0.5208,-0.5204,-0.5228,-0.5229,-0.5221,-0.5216,-0.5209,-0.5212,-0.5219,-0.5219,-0.522,0,-0.4951,-0.4972,-0.4995,-0.5023,-0.5031,-0.5043,-0.5067,-0.5082,-0.5106,-0.5117,-0.5133,-0.5149,-0.5166,-0.5172,-0.5196,-0.5193,-0.5204,-0.5215,-0.5215,-0.5219,-0.5224,-0.5219,-0.5213,-0.5214,-0.5221,-0.5221,-0.5221,0,-0.4938,-0.4971,-0.4989,-0.5,-0.5034,-0.5042,-0.5056,-0.508,-0.5093,-0.5113,-0.5122,-0.5144,-0.5156,-0.5173,-0.5194,-0.5196,-0.5217,-0.5224,-0.5227,-0.5226,-0.5231,-0.523,-0.5226,-0.5237,-0.5237,-0.5237,-0.5237,0,-0.4938,-0.4951,-0.4983,-0.4994,-0.501,-0.5033,-0.5047,-0.5063,-0.5084,-0.5099,-0.5117,-0.5131,-0.5157,-0.5174,-0.519,-0.5208,-0.5214,-0.5223,-0.5228,-0.5222,-0.5221,-0.523,-0.5231,-0.5237,-0.5237,-0.5237,-0.5237,0,-0.4926,-0.4947,-0.4968,-0.4999,-0.5006,-0.5017,-0.5042,-0.5054,-0.5071,-0.5089,-0.5095,-0.5121,-0.5142,-0.5164,-0.5192,-0.5204,-0.5221,-0.5227,-0.5213,-0.5215,-0.5217,-0.5217,-0.522,-0.5221,-0.523,-0.523,-0.523,0,-0.4925,-0.4935,-0.4967,-0.4978,-0.4992,-0.5009,-0.5022,-0.5045,-0.5058,-0.5085,-0.5093,-0.5115,-0.5134,-0.5166,-0.5188,-0.5209,-0.5216,-0.5215,-0.5219,-0.5213,-0.5217,-0.5216,-0.5217,-0.5214,-0.5214,-0.5214,-0.5214,0,-0.4921,-0.4931,-0.4949,-0.4971,-0.4986,-0.5005,-0.5024,-0.5032,-0.5058,-0.5072,-0.5093,-0.5107,-0.5135,-0.5157,-0.5181,-0.5196,-0.521,-0.5212,-0.5214,-0.5209,-0.5201,-0.5205,-0.521,-0.5212,-0.5213,-0.5213,-0.5213,-0.5213,-0.4914,-0.4925,-0.4948,-0.4968,-0.4984,-0.5002,-0.5014,-0.5032,-0.505,-0.5075,-0.5087,-0.5108,-0.5131,-0.5164,-0.5179,-0.5196,-0.52,-0.5203,-0.5204,-0.5204,-0.5203,-0.5197,-0.52,-0.52,-0.52,-0.5201,-0.5201,0,-0.4912,-0.4927,-0.4945,-0.4971,-0.4987,-0.4997,-0.5019,-0.5031,-0.5049,-0.5069,-0.5087,-0.5111,-0.5132,-0.5155,-0.5177,-0.5186,-0.5193,-0.5191,-0.5191,-0.5194,-0.5197,-0.5194,-0.5185,-0.5185,-0.5185,-0.5185,-0.5185,-0.5185,-0.4912,-0.493,-0.4943,-0.4969,-0.4985,-0.5005,-0.5017,-0.5033,-0.5049,-0.5075,-0.5092,-0.5107,-0.5128,-0.5152,-0.5172,-0.5178,-0.5186,-0.5182,-0.519,-0.5193,-0.5194,-0.5195,-0.5192,-0.5184,-0.5184,-0.5186,-0.5186,-0.5186]}]]